Вернуться в каталог

JCSAT 2A

АктивенСвязьGEO
NORAD 27399·PAYLOAD·🇯🇵 Japan

Запущен Mar 29, 2002 с Guiana Space Centre

Loading…

TLE

СвежийSource: Space-Track

Эпоха: Sep 14, 2026, 10:30 UTC

1 27399U 02015A   26257.43807655  .00000002  00000-0  00000-0 0  9990
2 27399   8.5203  63.1748 0007552 105.6830 243.7768  0.99025543 89530

Отслеживайте JCSAT 2A в реальном времени с AllMySat

Download on the App Store